Oscoda, MI

12:10 PM EST on December 11, 2019 (GMT -0500)
Oscoda-Wurtsmith

Weather History for KOSC - October, 2019

Change the Weather History Date:

Wednesday, October 2, 2019

  Actual Average Record
Temperature  
Mean Temperature 54 °F -  
Max Temperature 57 °F 60 °F 78 °F (2005)
Min Temperature 52 °F 41 °F 30 °F (2003)
Degree Days  
Heating Degree Days 10    
Growing Degree Days 4 (Base 50)    
Moisture  
Dew Point 50 °F    
Average Humidity 86    
Maximum Humidity 100    
Minimum Humidity 69    
Precipitation  
Precipitation 0.26 in - - ()
Sea Level Pressure  
Sea Level Pressure 30.03 in    
Wind  
Wind Speed 11 mph (NNE)    
Max Wind Speed 22 mph    
Max Gust Speed 28 mph    
Visibility 10 miles    
Events Rain    
Averages and records for this station are not official NWS values.
T = Trace of Precipitation, MM = Missing Value Source: NWS Daily Summary

Daily Weather History Graph

Daily Weather History Graph

Search for Another Location

Airport or City:

Astronomy

Oct. 02, 2019 Rise Set
Actual Time 7:32 AM EDT 7:12 PM EDT
Civil Twilight 7:03 AM EDT 7:41 PM EDT
Nautical Twilight 6:29 AM EDT 8:15 PM EDT
Astronomical Twilight 5:55 AM EDT 8:49 PM EDT
Moon 12:06 PM EDT (10/2) 9:55 PM EDT (10/2)
Length of Visible Light 12h 38m
Length of Day
11h 40m
Waxing Crescent, 20% of the Moon is Illuminated
Oct 2
Waxing Crescent
Oct 5
First Quarter
Oct 13
Full
Oct 21
Last Quarter
Oct 27
New

Hourly Weather History & Observations

Time (EDT) Temp. Dew Point Humidity Pressure Visibility Wind Dir Wind Speed Gust Speed Precip Events Conditions
12:19 AM 57.4 °F 57.4 °F 100% 29.93 in 10.0 mi North 11.5 mph - 0.02 in Rain Rain
12:55 AM 56.7 °F 56.5 °F 99% 29.91 in 7.0 mi North 9.2 mph - 0.06 in Rain Light Rain
12:56 AM 56.5 °F 56.5 °F 100% 29.91 in 7.0 mi North 8.1 mph - 0.06 in Rain Light Rain
1:15 AM 56.3 °F 56.3 °F 100% 29.91 in 10.0 mi NNE 9.2 mph - N/A Rain Light Rain
1:16 AM 56.3 °F 56.3 °F 100% 29.91 in 10.0 mi NNE 8.1 mph - N/A Rain Light Rain
1:35 AM 55.9 °F 55.8 °F 99% 29.91 in 10.0 mi North 6.9 mph - N/A Rain Light Rain
1:40 AM 55.9 °F 55.9 °F 100% 29.91 in 10.0 mi North 8.1 mph - N/A Rain Rain
1:58 AM 55.8 °F 55.8 °F 100% 29.91 in 10.0 mi North 6.9 mph - N/A Rain Light Rain
2:16 AM 55.6 °F 55.6 °F 100% 29.91 in 10.0 mi North 6.9 mph - N/A Rain Light Rain
2:35 AM 55.4 °F 55.4 °F 100% 29.92 in 10.0 mi North 6.9 mph - 0.01 in Rain Light Rain
2:55 AM 55.0 °F 55.0 °F 100% 29.94 in 10.0 mi North 5.8 mph - 0.03 in Rain Rain
2:56 AM 55.0 °F 55.0 °F 100% 29.94 in 10.0 mi North 6.9 mph - 0.03 in Rain Rain
3:18 AM 55.0 °F 55.0 °F 100% 29.94 in 10.0 mi North 5.8 mph - 0.02 in Rain Light Rain
3:37 AM 54.9 °F 54.9 °F 100% 29.95 in 10.0 mi NNW 3.5 mph - 0.03 in Rain Light Rain
3:55 AM 54.9 °F 54.9 °F 100% 29.95 in 7.0 mi WNW 3.5 mph - 0.04 in Rain Light Rain
4:15 AM 54.9 °F 54.9 °F 100% 29.94 in 7.0 mi NNW 3.5 mph - 0.03 in Rain Rain
4:16 AM 54.9 °F 54.9 °F 100% 29.94 in 7.0 mi NNW 4.6 mph - 0.03 in Rain Rain
4:35 AM 54.9 °F 54.9 °F 100% 29.93 in 10.0 mi North 6.9 mph - 0.05 in Rain Light Rain
4:40 AM 54.9 °F 54.9 °F 100% 29.93 in 10.0 mi NNW 5.8 mph - 0.05 in Rain Light Rain
4:57 AM 54.9 °F 54.9 °F 100% 29.93 in 10.0 mi NW 5.8 mph - 0.07 in Rain Rain
5:16 AM 54.9 °F 54.9 °F 100% 29.93 in 10.0 mi NNW 8.1 mph - N/A Rain Light Rain
5:35 AM 55.0 °F 55.0 °F 100% 29.93 in 10.0 mi North 8.1 mph - 0.01 in Rain Rain
5:36 AM 55.0 °F 55.0 °F 100% 29.93 in 10.0 mi North 9.2 mph - 0.01 in Rain Rain
5:55 AM 55.4 °F 55.4 °F 100% 29.94 in 10.0 mi North 8.1 mph - 0.02 in Rain Light Rain
5:56 AM 55.4 °F 55.4 °F 100% 29.94 in 10.0 mi North 8.1 mph - 0.02 in Rain Light Rain
6:19 AM 55.4 °F 55.4 °F 100% 29.94 in 10.0 mi NNW 9.2 mph - N/A Rain Light Rain
6:37 AM 55.4 °F 55.4 °F 100% 29.95 in 10.0 mi North 9.2 mph - N/A Rain Light Rain
6:55 AM 55.9 °F 55.9 °F 100% 29.95 in 10.0 mi North 9.2 mph - 0.01 in Rain Light Rain
7:15 AM 56.7 °F 56.7 °F 100% 29.94 in 7.0 mi ENE 11.5 mph 17.3 mph 0.01 in Rain Light Rain
7:16 AM 56.7 °F 56.7 °F 100% 29.94 in 7.0 mi East 10.4 mph 17.3 mph 0.01 in Rain Light Rain
7:35 AM 56.8 °F 56.8 °F 100% 29.94 in 10.0 mi NE 13.8 mph - 0.01 in Rain Light Rain
7:40 AM 56.8 °F 56.7 °F 99% 29.95 in 10.0 mi NE 13.8 mph - 0.01 in Rain Light Rain
7:58 AM 56.7 °F 56.3 °F 99% 29.97 in 10.0 mi NE 13.8 mph - 0.02 in Rain Light Rain
8:16 AM 56.3 °F 56.3 °F 100% 29.98 in 10.0 mi NNE 12.7 mph 19.6 mph N/A Rain Light Rain
8:35 AM 55.8 °F 54.7 °F 96% 30.00 in 10.0 mi NE 12.7 mph - N/A   Overcast
8:36 AM 55.8 °F 54.7 °F 96% 30.00 in 10.0 mi NE 11.5 mph - N/A   Overcast
8:55 AM 55.6 °F 53.4 °F 92% 30.01 in 10.0 mi NE 12.7 mph 18.4 mph N/A   Overcast
8:56 AM 55.6 °F 53.2 °F 92% 30.01 in 10.0 mi NE 15.0 mph 19.6 mph N/A   Overcast
9:19 AM 55.0 °F 52.2 °F 90% 30.01 in 10.0 mi NE 13.8 mph - 0.01 in   Light Drizzle
9:37 AM 54.9 °F 52.2 °F 91% 30.02 in 10.0 mi NNE 15.0 mph 21.9 mph 0.01 in   Overcast
9:55 AM 54.5 °F 51.1 °F 88% 30.03 in 10.0 mi NNE 15.0 mph - 0.01 in   Overcast
10:15 AM 54.5 °F 50.4 °F 86% 30.04 in 10.0 mi NNE 13.8 mph 20.7 mph N/A   Overcast
10:35 AM 54.5 °F 50.4 °F 86% 30.04 in 10.0 mi NNE 13.8 mph - N/A   Overcast
10:40 AM 54.5 °F 50.4 °F 86% 30.04 in 10.0 mi NE 13.8 mph 18.4 mph N/A   Overcast
10:58 AM 54.5 °F 50.0 °F 85% 30.05 in 10.0 mi NNE 11.5 mph 17.3 mph N/A   Overcast
11:16 AM 54.9 °F 50.2 °F 84% 30.05 in 10.0 mi NNE 11.5 mph 18.4 mph N/A   Overcast
11:35 AM 54.9 °F 50.0 °F 84% 30.06 in 10.0 mi NNE 15.0 mph - N/A   Overcast
11:55 AM 54.9 °F 49.6 °F 83% 30.06 in 10.0 mi NNE 13.8 mph - N/A   Overcast
11:56 AM 54.9 °F 49.6 °F 83% 30.06 in 10.0 mi NNE 15.0 mph - N/A   Overcast
12:19 PM 54.7 °F 49.6 °F 83% 30.05 in 10.0 mi NNE 15.0 mph - N/A   Overcast
12:37 PM 55.4 °F 50.0 °F 82% 30.05 in 10.0 mi NNE 18.4 mph 23.0 mph N/A   Overcast
12:55 PM 55.9 °F 50.0 °F 80% 30.05 in 10.0 mi NNE 18.4 mph - N/A   Overcast
1:15 PM 56.5 °F 49.8 °F 78% 30.06 in 10.0 mi NNE 19.6 mph 26.5 mph N/A   Overcast
1:35 PM 56.3 °F 49.3 °F 77% 30.06 in 10.0 mi NE 16.1 mph - N/A   Overcast
1:39 PM 56.3 °F 49.5 °F 78% 30.07 in 10.0 mi NNE 16.1 mph 24.2 mph N/A   Overcast
1:58 PM 55.6 °F 48.6 °F 77% 30.06 in 10.0 mi NNE 17.3 mph 23.0 mph N/A   Overcast
2:16 PM 56.3 °F 48.6 °F 75% 30.07 in 10.0 mi NNE 13.8 mph 23.0 mph N/A   Overcast
2:35 PM 55.8 °F 47.7 °F 74% 30.07 in 10.0 mi NE 18.4 mph 23.0 mph N/A   Overcast
2:55 PM 55.4 °F 47.8 °F 76% 30.07 in 10.0 mi NE 12.7 mph 21.9 mph N/A   Overcast
2:56 PM 55.4 °F 47.8 °F 76% 30.07 in 10.0 mi NE 12.7 mph 21.9 mph N/A   Overcast
3:18 PM 54.9 °F 47.5 °F 76% 30.07 in 10.0 mi NE 15.0 mph 20.7 mph N/A   Overcast
3:37 PM 54.9 °F 47.3 °F 76% 30.08 in 10.0 mi NE 17.3 mph 23.0 mph N/A   Overcast
3:55 PM 54.9 °F 46.9 °F 75% 30.08 in 10.0 mi NE 18.4 mph 21.9 mph N/A   Overcast
4:15 PM 54.5 °F 46.4 °F 74% 30.09 in 10.0 mi NE 13.8 mph 21.9 mph N/A   Overcast
4:35 PM 55.0 °F 45.9 °F 71% 30.10 in 10.0 mi NE 16.1 mph 21.9 mph N/A   Overcast
4:58 PM 54.0 °F 46.4 °F 76% 30.10 in 10.0 mi NNE 15.0 mph 23.0 mph N/A   Overcast
5:16 PM 54.0 °F 45.7 °F 74% 30.10 in 10.0 mi NNE 16.1 mph 24.2 mph N/A   Overcast
5:35 PM 54.1 °F 44.1 °F 69% 30.10 in 10.0 mi NE 15.0 mph - N/A   Mostly Cloudy
5:36 PM 54.1 °F 44.1 °F 69% 30.10 in 10.0 mi NE 16.1 mph - N/A   Mostly Cloudy
5:55 PM 53.8 °F 45.1 °F 73% 30.10 in 10.0 mi NE 13.8 mph - N/A   Mostly Cloudy
5:56 PM 53.8 °F 45.1 °F 73% 30.11 in 10.0 mi NE 13.8 mph - N/A   Mostly Cloudy
6:19 PM 53.6 °F 44.6 °F 72% 30.12 in 10.0 mi NE 10.4 mph - N/A   Overcast
6:37 PM 53.6 °F 45.0 °F 73% 30.12 in 10.0 mi NE 15.0 mph 20.7 mph N/A   Overcast
6:55 PM 53.2 °F 44.4 °F 72% 30.11 in 10.0 mi NE 16.1 mph 24.2 mph N/A   Overcast
7:15 PM 53.1 °F 43.7 °F 71% 30.11 in 10.0 mi NE 16.1 mph 21.9 mph N/A   Overcast
7:35 PM 53.2 °F 43.9 °F 71% 30.11 in 10.0 mi ENE 18.4 mph 24.2 mph N/A   Overcast
7:40 PM 53.1 °F 43.7 °F 71% 30.11 in 10.0 mi ENE 18.4 mph 24.2 mph N/A   Overcast
7:58 PM 53.1 °F 43.7 °F 71% 30.10 in 10.0 mi NE 17.3 mph 23.0 mph N/A   Overcast
8:16 PM 53.1 °F 43.7 °F 71% 30.12 in 10.0 mi NE 16.1 mph 21.9 mph N/A   Overcast
8:35 PM 53.1 °F 43.9 °F 71% 30.13 in 10.0 mi ENE 20.7 mph 26.5 mph N/A   Overcast
8:55 PM 53.1 °F 43.9 °F 71% 30.13 in 10.0 mi ENE 13.8 mph - N/A   Overcast
8:56 PM 53.1 °F 43.9 °F 71% 30.12 in 10.0 mi ENE 15.0 mph 20.7 mph N/A   Overcast
9:19 PM 53.2 °F 44.2 °F 72% 30.13 in 10.0 mi ENE 17.3 mph 21.9 mph N/A   Overcast
9:37 PM 53.1 °F 44.2 °F 72% 30.12 in 10.0 mi ENE 19.6 mph 26.5 mph N/A   Overcast
9:55 PM 53.1 °F 44.8 °F 73% 30.12 in 10.0 mi ENE 21.9 mph 26.5 mph N/A   Overcast
10:15 PM 53.1 °F 44.1 °F 71% 30.12 in 10.0 mi ENE 18.4 mph 25.3 mph N/A   Overcast
10:35 PM 53.1 °F 44.2 °F 72% 30.13 in 10.0 mi East 19.6 mph - N/A   Overcast
10:40 PM 53.1 °F 43.9 °F 71% 30.11 in 10.0 mi ENE 16.1 mph 23.0 mph N/A   Overcast
10:58 PM 52.9 °F 43.7 °F 71% 30.11 in 10.0 mi ENE 16.1 mph 27.6 mph N/A   Overcast
11:16 PM 52.9 °F 43.9 °F 71% 30.12 in 10.0 mi ENE 20.7 mph 25.3 mph N/A   Overcast
11:35 PM 52.9 °F 44.8 °F 74% 30.11 in 10.0 mi ENE 16.1 mph - N/A   Overcast
11:55 PM 53.1 °F 45.3 °F 75% 30.11 in 10.0 mi ENE 18.4 mph 25.3 mph N/A   Light Drizzle